Greensboro, NC

10:17 PM EDT on April 26, 2017 (GMT -0400)
Piedmont Triad International

Weather History for KGSO - July, 2013

Change the Weather History Date:

Thursday, July 25, 2013

  Actual Average Record
Temperature  
Mean Temperature 74 °F 78 °F  
Max Temperature 81 °F 88 °F 101 °F (1914)
Min Temperature 66 °F 69 °F 56 °F (1947)
Degree Days  
Heating Degree Days 0 0  
Month to date heating degree days 0 0  
Since 1 June heating degree days 0 6  
Since 1 July heating degree days 0 0  
Cooling Degree Days 9 14  
Month to date cooling degree days 342 344  
Year to date cooling degree days 791 810  
Since 1 June cooling degree days 641 651  
Growing Degree Days 24 (Base 50)    
Moisture  
Dew Point 64 °F    
Average Humidity 75    
Maximum Humidity 87    
Minimum Humidity 62    
Precipitation  
Precipitation T in 0.15 in 2.79 in (1926)
Month to date precipitation 4.66 3.54  
Year to date precipitation 31.38 23.97  
Sea Level Pressure  
Sea Level Pressure 29.93 in    
Wind  
Wind Speed 7 mph (NE)    
Max Wind Speed 18 mph    
Max Gust Speed 28 mph    
Visibility 10 miles    
Events Rain , Thunderstorm    
T = Trace of Precipitation, MM = Missing Value Source: NWS Daily Summary

Daily Weather History Graph

Daily Weather History Graph

Search for Another Location

Airport or City:

Trip Planner

Search our weather history database for the weather conditions in past years. The results will help you decide how hot, cold, wet, or windy it might be!

Date:

Astronomy

Jul. 25, 2013 Rise Set
Actual Time 6:21 AM EDT 8:30 PM EDT
Civil Twilight 5:52 AM EDT 8:59 PM EDT
Nautical Twilight 5:17 AM EDT 9:34 PM EDT
Astronomical Twilight 4:39 AM EDT 10:12 PM EDT
Moon 10:19 PM EDT (7/25) 9:41 AM EDT (7/25)
Length of Visible Light 15h 06m
Length of Day
14h 08m
Waning Gibbous, 88% of the Moon is Illuminated
Jul 25
Waning Gibbous
Jul 29
Last Quarter
Aug 6
New
Aug 14
First Quarter
Aug 20
Full

Hourly Weather History & Observations

Time (EDT) Temp. Heat Index Dew Point Humidity Pressure Visibility Wind Dir Wind Speed Gust Speed Precip Events Conditions
12:54 AM 72.0 °F - 66.9 °F 84% 29.85 in 10.0 mi WSW 9.2 mph - 0.00 in Rain Light Rain
1:03 AM 71.6 °F - 66.2 °F 83% 29.89 in 10.0 mi West 9.2 mph - 0.00 in Rain , Thunderstorm Light Thunderstorms and Rain
1:30 AM 71.6 °F - 66.2 °F 83% 29.88 in 10.0 mi Calm Calm - 0.00 in Rain Light Rain
1:54 AM 72.0 °F - 66.9 °F 84% 29.85 in 10.0 mi Calm Calm - 0.00 in Rain Light Rain
2:18 AM 71.6 °F - 66.2 °F 83% 29.89 in 10.0 mi NNE 11.5 mph 17.3 mph 0.00 in   Overcast
2:54 AM 71.1 °F - 66.0 °F 84% 29.86 in 10.0 mi NE 18.4 mph 27.6 mph 0.00 in   Overcast
3:15 AM 69.8 °F - 66.2 °F 88% 29.89 in 10.0 mi NE 11.5 mph 19.6 mph N/A   Overcast
3:29 AM 69.8 °F - 66.2 °F 88% 29.89 in 10.0 mi NE 11.5 mph 19.6 mph N/A   Overcast
3:54 AM 69.1 °F - 64.9 °F 87% 29.86 in 10.0 mi NE 11.5 mph - N/A   Overcast
4:30 AM 69.8 °F - 64.4 °F 83% 29.89 in 10.0 mi NE 11.5 mph - N/A   Mostly Cloudy
4:54 AM 68.0 °F - 63.0 °F 84% 29.86 in 10.0 mi NE 10.4 mph - N/A   Overcast
5:54 AM 66.0 °F - 62.1 °F 87% 29.88 in 10.0 mi North 5.8 mph - N/A   Mostly Cloudy
6:01 AM 66.2 °F - 62.6 °F 88% 29.91 in 10.0 mi North 8.1 mph - N/A   Mostly Cloudy
6:54 AM 66.0 °F - 61.0 °F 84% 29.89 in 10.0 mi NNE 5.8 mph - N/A   Mostly Cloudy
7:54 AM 68.0 °F - 62.1 °F 81% 29.91 in 10.0 mi NNE 8.1 mph - N/A   Mostly Cloudy
8:09 AM 69.8 °F - 60.8 °F 73% 29.94 in 10.0 mi NNE 9.2 mph - N/A   Scattered Clouds
8:54 AM 70.0 °F - 61.0 °F 73% 29.92 in 10.0 mi NE 12.7 mph - N/A   Mostly Cloudy
9:54 AM 73.0 °F - 62.1 °F 68% 29.94 in 10.0 mi NE 11.5 mph - N/A   Mostly Cloudy
10:08 AM 73.4 °F - 62.6 °F 69% 29.96 in 10.0 mi NE 11.5 mph - N/A   Scattered Clouds
10:29 AM 73.4 °F - 62.6 °F 69% 29.97 in 10.0 mi NE 12.7 mph - N/A   Mostly Cloudy
10:54 AM 73.9 °F - 63.0 °F 68% 29.95 in 10.0 mi NE 11.5 mph - N/A   Mostly Cloudy
11:54 AM 73.0 °F - 63.0 °F 71% 29.96 in 10.0 mi NE 10.4 mph - N/A   Overcast
12:54 PM 75.9 °F - 64.9 °F 69% 29.96 in 10.0 mi East 5.8 mph 17.3 mph N/A   Overcast
1:54 PM 75.0 °F - 64.9 °F 71% 29.96 in 10.0 mi ENE 11.5 mph - N/A   Mostly Cloudy
2:54 PM 78.1 °F - 66.0 °F 66% 29.96 in 10.0 mi East 4.6 mph - N/A   Mostly Cloudy
3:54 PM 77.0 °F - 64.0 °F 64% 29.95 in 10.0 mi ENE 4.6 mph - N/A   Mostly Cloudy
4:24 PM 78.8 °F - 64.4 °F 61% 29.98 in 10.0 mi Variable 3.5 mph - N/A   Scattered Clouds
4:54 PM 81.0 °F 83.0 °F 66.0 °F 60% 29.95 in 10.0 mi East 6.9 mph - N/A   Scattered Clouds
5:54 PM 78.1 °F - 64.9 °F 64% 29.95 in 10.0 mi ENE 4.6 mph - N/A   Scattered Clouds
6:54 PM 77.0 °F - 64.0 °F 64% 29.96 in 10.0 mi East 3.5 mph - N/A   Scattered Clouds
7:54 PM 75.9 °F - 64.9 °F 69% 29.97 in 10.0 mi ENE 8.1 mph - N/A   Partly Cloudy
8:54 PM 72.0 °F - 64.9 °F 78% 29.99 in 10.0 mi East 4.6 mph - N/A   Clear
9:54 PM 72.0 °F - 66.0 °F 81% 30.01 in 10.0 mi ESE 3.5 mph - N/A   Mostly Cloudy
10:54 PM 73.0 °F - 66.0 °F 79% 30.03 in 10.0 mi East 5.8 mph - N/A   Mostly Cloudy
11:54 PM 71.1 °F - 64.9 °F 81% 30.04 in 10.0 mi ENE 3.5 mph - N/A   Scattered Clouds